Location: Beddau
(51.5575°N, 3.3561°W)
Time: 13:54:47
(UTC+00:00)

IRS-1A Rocket - Pass Details

Date: 03 March 2021
Orbit: 851 x 931 km, 99.2° (Epoch: 11 April)

Event Time Altitude Azimuth Distance (km) Brightness Sun altitude
Exits shadow 19:46:41 14° 151° (SSE) 2,244 6.0 -17.7°
Maximum altitude 19:51:31 71° 70° (ENE) 920 4.2 -18.4°
Drops below altitude 10° 19:57:03 10° 347° (NNW) 2,509 7.0 -19.2°
Sets 19:59:26 0° 346° (NNW) 3,443 7.8 -19.6°
